Location: Township of Marena
(38.1747°N, 99.6798°W)
Time: 02:18:12
(UTC+00:00)

Cosmos 2360 - Pass Details

Date: 26 October 2020
Orbit: 848 x 855 km, 70.8° (Epoch: 27 November)

Event Time Altitude Azimuth Distance (km) Brightness Sun altitude
Rises 01:26:19 0° 187° (S) 3,408 7.4 -20.2°
Reaches altitude 10° 01:28:48 10° 182° (S) 2,476 6.6 -20.6°
Maximum altitude 01:34:18 52° 107° (ESE) 1,054 4.3 -21.7°
Enters shadow 01:35:32 44° 68° (ENE) 1,167 4.5 -22.0°
